Showing default

USA 11, 16116

Orbit data source: Space-Track

USA 11, 16116 is an American payload satellite in GEO that was launched on Thu, 03 Oct 1985 UTC via an SPACE SHUTTLE launch vehicle from the Air Force Eastern Test Range (AFETR). Payload-class satellites include a variety of spacecraft equipped with specific instruments for various scientific and technological missions. These include communications satellites like Starlink; space stations such as the ISS; scientific satellites like the Hubble; Earth observation satellites from companies like Planet Labs, Umbra, and HawkEye 360; GPS; miniature CubeSats for education and research; and military/defense satellites.

Not visible in the next 10 days
Identifier
16116, 1985-092B
Orbit
GEO
Country
Flag of USUS
Related business
Manufacturer
GE/MSVD
Mission
Spacecraft
Bus & Motor
DSCS III, AOCS
Mass
~1,170 kg wet, 893 kg dry
Launch date (UTC)
1985-10-03 (40 years ago)
Launch vehicle
SPACE SHUTTLE
Launch site
Air Force Eastern Test Range (AFETR)
Object type
Payload
Rocket body
Debris
Shape & HBR
Unknown
Radar Cross Section
RCS unknown

Expand to show TLE details & history
Last TLE update: 23 hours ago

TLE from 23 hours ago
0 USA 11
1 16116U 85092B   25348.63808228  .00000053  00000-0  00000-0 0  9996
2 16116  14.4532 348.8001 0004399 243.7409 119.2195  0.99325004 24099
Epoch: 2025-12-14T15:18Z
TLE epoch observation values (Epoch: 2025-12-14T15:18:50.308Z)
Latitude
0.75413°
Longitude
38.44181°
Altitude
36,062.671 km
Speed
3.064 km/s
True Right ascension
23h 26m 47s
True Declination
0° 45' 12"
Sunlit
Object was in daylight at epoch
Visualization orbit readout
Latitude
Unknown
Longitude
Unknown
Altitude
Unknown
Speed
Unknown
Apparent Right ascension
Unknown
Apparent Declination
Unknown
Sunlit
N/A
Visualization observer readout
Local Sidereal Time
13:23:44
Azimuth
Unknown
Elevation
Unknown
Doppler factor
Unknown
Orbital elements
Apogee altitude
36,073.751 km
Perigee altitude
36,036.419 km
Semi-major axis
42,433.222 km
Eccentricity
0.00044
Inclination
14.4532°
RAAN
348.8001°
Arg. of periapsis
243.7409°
True anomaly
119.26348°
Mean anomaly
119.2195°
Eccentric anomaly
119.24149°
Mean motion
0.2483 °/min
Orbital period
1,449.83 mins
BSTAR
0
Loading maneuver chart data...
Computing Atmospheric mass density...
Loading historical data...
Loading historical data...
Loading historical data...
Loading historical data...
Loading historical data...
Loading historical data...
Loading historical data...
Other satellites on launch #92 in the year 1985 (1985-10-03 UTC)

Documentation

Showing up to 5 results
|